This demonstration page uses our WeatherBlox Daily Observations layout. Learn more.

Left ArrowRight Arrow

34.74481, -87.66753

Hourly Observations for May 20, 2019

Temp ( °F °C ) Dew Point ( °F °C ) Humidity (%) Winds ( mph kmh ) Pressure ( in mb ) Visibility ( mi km ) Precip ( " mm )
12:53 am 00:53 Clear 70 21.1 66 18.9 87 87 SW 3 6 29.97 1015 10 16 0.00 0.00
1:53 am 01:53 Clear 68 20 65 18.3 90 90 SSW 3 6 29.97 1015 10 16 0.00 0.00
2:53 am 02:53 Clear 66 18.9 64 17.8 93 93 Calm 29.98 1015 10 16 0.00 0.00
3:53 am 03:53 Clear 67 19.4 64 17.8 91 91 NE 3 6 29.99 1016 10 16 0.00 0.00
4:53 am 04:53 Mostly Cloudy 68 20 66 18.9 93 93 N 3 6 30.01 1016 10 16 0.00 0.00
5:41 am 05:41 Cloudy 69 20.6 67 19.4 93 93 W 5 7 30.03 1017 10 16 0.00 0.00
5:53 am 05:53 Cloudy 69 20.6 67 19.4 93 93 WSW 3 6 30.02 1017 10 16 0.00 0.00
6:53 am 06:53 Cloudy 70 21.1 67 19.4 90 90 WSW 5 7 30.04 1017 10 16 0.00 0.00
7:53 am 07:53 Cloudy 71 21.7 67 19.4 87 87 Calm 30.06 1018 10 16 0.00 0.00
8:34 am 08:34 Mostly Cloudy 76 24.4 67 19.4 74 74 NNW 3 6 30.06 1018 10 16 0.00 0.00
8:46 am 08:46 Partly Cloudy 76 24.4 65 18.3 69 69 NW 3 6 30.06 1018 10 16 0.00 0.00
8:53 am 08:53 Mostly Sunny 75 23.9 65 18.3 71 71 Calm 30.06 1018 10 16 0.00 0.00
9:53 am 09:53 Sunny 77 25 65 18.3 66 66 VRB 3 6 30.06 1018 10 16 0.00 0.00
10:53 am 10:53 Mostly Cloudy 80 26.7 66 18.9 62 62 SE 3 6 30.06 1018 10 16 0.00 0.00
11:11 am 11:11 Partly Cloudy 80 26.7 64 17.8 58 58 Calm 30.05 1018 10 16 0.00 0.00
11:53 am 11:53 Mostly Sunny 83 28.3 64 17.8 53 53 W 5 7 30.05 1018 10 16 0.00 0.00
12:53 pm 12:53 Mostly Sunny 85 29.4 64 17.8 50 50 VRB 5 7 30.03 1017 10 16 0.00 0.00
1:53 pm 13:53 Mostly Sunny 86 30 60 15.6 42 42 Calm 30.01 1016 10 16 0.00 0.00
2:53 pm 14:53 Sunny 88 31.1 61 16.1 40 40 VRB 5 7 29.99 1016 10 16 0.00 0.00
3:53 pm 15:53 Partly Cloudy 88 31.1 62 16.7 42 42 VRB 3 6 29.98 1015 10 16 0.00 0.00
4:53 pm 16:53 Mostly Sunny 86 30 62 16.7 45 45 WSW 6 9 29.97 1015 10 16 0.00 0.00
5:53 pm 17:53 Mostly Cloudy 87 30.6 64 17.8 46 46 VRB 6 9 29.96 1014 10 16 0.00 0.00
6:53 pm 18:53 Mostly Cloudy 86 30 64 17.8 48 48 Calm 29.93 1014 10 16 0.00 0.00
7:53 pm 19:53 Mostly Clear 80 26.7 64 17.8 58 58 E 3 6 29.93 1014 10 16 0.00 0.00
8:53 pm 20:53 Clear 75 23.9 65 18.3 71 71 Calm 29.93 1014 10 16 0.00 0.00
9:53 pm 21:53 Clear 73 22.8 66 18.9 79 79 ESE 5 7 29.95 1014 10 16 0.00 0.00
10:53 pm 22:53 Clear 72 22.2 66 18.9 82 82 Calm 29.96 1014 10 16 0.00 0.00
11:53 pm 23:53 Clear 71 21.7 66 18.9 84 84 Calm 29.93 1014 10 16 0.00 0.00

Powered by AerisWeather